This demonstration page uses our WeatherBlox Daily Observations layout. Learn more.

Left ArrowRight Arrow

Hourly Observations for June 15, 2021

Temp ( °F °C ) Dew Point ( °F °C ) Humidity (%) Winds ( mph kmh ) Pressure ( in mb ) Visibility ( mi km ) Precip ( " mm )
12:15 am 00:15 Clear 72 22.3 66 18.7 80 80 SE 3 6 29.99 1016 10 16 N/A
12:35 am 00:35 Clear 74 23.1 66 18.9 77 77 SSE 3 6 29.99 1015 10 16 N/A
12:55 am 00:55 Clear 72 22.1 66 18.8 82 82 E 3 6 29.99 1016 10 16 N/A
1:15 am 01:15 Clear 73 22.6 66 19.1 81 81 SE 3 6 29.99 1016 10 16 N/A
1:35 am 01:35 Clear 73 22.7 66 19 80 80 SE 3 6 29.99 1016 10 16 N/A
1:55 am 01:55 Clear 72 22.1 66 19 83 83 SSE 3 6 29.99 1016 10 16 N/A
2:15 am 02:15 Clear 70 21.1 65 18.6 86 86 S 6 9 30.00 1016 10 16 N/A
2:35 am 02:35 Clear 72 22.2 64 18 77 77 S 6 9 29.99 1016 10 16 N/A
2:55 am 02:55 Clear 72 22.1 64 17.8 77 77 S 3 6 30.00 1016 10 16 N/A
3:15 am 03:15 Clear 73 22.5 64 17.5 73 73 SSW 5 7 30.00 1016 10 16 N/A
3:35 am 03:35 Clear 72 22 64 17.5 76 76 SW 3 6 30.00 1016 10 16 N/A
3:55 am 03:55 Clear 72 22 64 17.5 76 76 N N/A 30.00 1016 10 16 N/A
4:15 am 04:15 Clear 69 20.4 63 17.2 82 82 N N/A 30.01 1016 10 16 N/A
4:35 am 04:35 Clear 68 20 63 17.2 84 84 N N/A 30.01 1016 10 16 N/A
4:55 am 04:55 Clear 67 19.4 63 17.3 88 88 N N/A 30.02 1016 10 16 N/A
5:15 am 05:15 Clear 67 19.5 63 17.4 88 88 N N/A 30.03 1017 10 16 N/A
5:35 am 05:35 Clear 69 20.3 63 17.1 82 82 SSE 5 7 30.02 1017 10 16 N/A
5:55 am 05:55 Clear 67 19.6 62 16.9 85 85 N N/A 30.03 1017 10 16 N/A
6:15 am 06:15 Sunny 67 19.3 63 17 87 87 SE 3 6 30.03 1017 10 16 N/A
6:35 am 06:35 Sunny 68 20.2 63 17.3 84 84 E 3 6 30.01 1016 10 16 N/A
6:55 am 06:55 Sunny 68 20.1 64 17.9 87 87 SE 3 6 30.02 1017 10 16 N/A
7:15 am 07:15 Hazy 70 21.3 65 18.3 83 83 NE 5 7 30.02 1017 5 8 N/A
7:35 am 07:35 Sunny 72 22.4 66 18.8 80 80 N N/A 30.02 1017 10 16 N/A
7:55 am 07:55 Hazy 74 23.4 67 19.4 78 78 E 3 6 30.01 1016 4 6 N/A
8:15 am 08:15 Sunny 76 24.6 67 19.3 72 72 N N/A 30.00 1016 10 16 N/A
8:35 am 08:35 Sunny 78 25.7 67 19.5 69 69 E 3 6 29.99 1016 10 16 N/A
8:55 am 08:55 Sunny 79 26 67 19.2 66 66 N N/A 29.99 1016 10 16 N/A
9:15 am 09:15 Sunny 80 26.7 66 19.1 63 63 N N/A 30.00 1016 10 16 N/A
9:35 am 09:35 Sunny 81 27.2 66 19 61 61 E 5 7 29.99 1016 10 16 N/A
9:55 am 09:55 Sunny 82 28 66 18.8 57 57 N N/A 29.98 1015 10 16 N/A
10:15 am 10:15 Sunny 84 28.9 66 18.9 55 55 N N/A 29.99 1015 10 16 N/A
10:35 am 10:35 Sunny 84 29.1 66 19 54 54 N N/A 29.98 1015 10 16 N/A
10:55 am 10:55 Sunny 85 29.2 67 19.5 56 56 WNW 10 17 29.99 1016 10 16 N/A
11:15 am 11:15 Sunny 84 29 67 19.4 56 56 WNW 12 19 30.00 1016 10 16 N/A
11:35 am 11:35 Sunny 84 29 66 19.1 55 55 WNW 9 15 29.99 1015 10 16 N/A
11:55 am 11:55 Sunny 86 30.1 67 19.2 52 52 W 3 6 29.96 1014 10 16 N/A
12:15 pm 12:15 Sunny 86 30 68 19.8 54 54 ESE 10 17 29.91 1013 10 16 N/A
12:35 pm 12:35 Sunny 88 30.9 67 19.5 51 51 SE 6 9 29.92 1013 10 16 N/A
12:55 pm 12:55 Sunny 87 30.6 67 19.2 51 51 SSE 3 6 29.93 1014 10 16 N/A
1:15 pm 13:15 Sunny 89 31.6 68 20 50 50 SE 8 13 29.92 1013 10 16 N/A
1:35 pm 13:35 Sunny 90 32.4 68 20.1 48 48 S 8 13 29.91 1013 10 16 N/A
1:55 pm 13:55 Sunny 92 33.2 69 20.3 47 47 SSE 9 15 29.88 1012 10 16 N/A
2:15 pm 14:15 Sunny 93 34.1 65 18.6 40 40 SSE 12 19 29.87 1011 10 16 N/A
2:35 pm 14:35 Sunny 94 34.6 65 18.6 39 39 S 13 20 29.86 1011 10 16 N/A
2:55 pm 14:55 Sunny 95 35 66 19.1 39 39 SSE 14 22 29.86 1011 10 16 N/A
3:15 pm 15:15 Sunny 95 35.2 63 17 34 34 SSE 13 20 29.86 1011 10 16 N/A
3:35 pm 15:35 Sunny 96 35.5 64 17.9 35 35 SSE 9 15 29.85 1011 10 16 N/A
3:55 pm 15:55 Sunny 96 35.7 66 18.7 37 37 S 16 26 29.84 1011 10 16 N/A
4:15 pm 16:15 Sunny 96 35.8 65 18.6 36 36 S 13 20 29.84 1011 10 16 N/A
4:35 pm 16:35 Sunny 97 36.1 65 18.6 36 36 S 15 24 29.83 1010 10 16 N/A
4:55 pm 16:55 Sunny 97 36.2 64 17.6 33 33 SSW 12 19 29.83 1010 7 11 N/A
5:15 pm 17:15 Sunny 97 36 63 17 32 32 S 13 20 29.83 1010 10 16 N/A
5:35 pm 17:35 Sunny 97 36.2 61 15.9 30 30 SSW 9 15 29.82 1010 10 16 N/A
5:55 pm 17:55 Hazy 97 36.1 62 16.4 31 31 S 12 19 29.82 1010 5 8 N/A
6:15 pm 18:15 Sunny 96 35.7 61 16.2 31 31 S 13 20 29.82 1010 7 11 N/A
6:35 pm 18:35 Sunny 96 35.6 62 16.9 33 33 S 9 15 29.82 1010 10 16 N/A
6:55 pm 18:55 Sunny 96 35.3 63 17.2 34 34 S 13 20 29.82 1010 10 16 N/A
7:15 pm 19:15 Sunny 95 35 63 17.1 34 34 SSE 12 19 29.82 1010 10 16 N/A
7:35 pm 19:35 Sunny 94 34.4 64 17.6 37 37 SSE 8 13 29.82 1010 10 16 N/A
7:55 pm 19:55 Sunny 92 33.5 65 18.1 40 40 SSE 8 13 29.83 1010 10 16 N/A
8:15 pm 20:15 Sunny 91 32.5 65 18.3 43 43 SSE 8 13 29.84 1010 10 16 N/A
8:35 pm 20:35 Sunny 89 31.9 64 17.8 43 43 SE 9 15 29.84 1011 10 16 N/A
8:55 pm 20:55 Sunny 87 30.7 64 17.7 46 46 SSE 7 11 29.85 1011 10 16 N/A
9:15 pm 21:15 Clear 84 29 65 18.3 52 52 SE 7 11 29.87 1011 10 16 N/A
9:35 pm 21:35 Clear 83 28.2 65 18.5 56 56 SSE 7 11 29.87 1012 10 16 N/A
9:55 pm 21:55 Clear 84 28.7 65 18.5 54 54 SE 7 11 29.87 1011 10 16 N/A
10:15 pm 22:15 Clear 83 28.4 65 18.5 55 55 SE 8 13 29.87 1012 10 16 N/A
10:35 pm 22:35 Clear 82 27.7 65 18.5 57 57 SE 8 13 29.89 1012 10 16 N/A
10:55 pm 22:55 Clear 81 27.4 65 18.5 58 58 SSE 8 13 29.89 1012 10 16 N/A
11:15 pm 23:15 Clear 81 27.1 65 18.5 59 59 SSE 8 13 29.89 1012 10 16 N/A
11:35 pm 23:35 Clear 79 26 65 18.6 64 64 SSE 7 11 29.90 1013 10 16 N/A
11:55 pm 23:55 Clear 78 25.6 65 18.5 65 65 SSE 7 11 29.90 1013 10 16 N/A

Powered by AerisWeather